Location: *
(40.9167°N, 9.5000°E)
Time: 03:47:54
(UTC+00:00)

Ariane Rocket - Pass Details

Date: 09 April 2020
Orbit: 761 x 769 km, 98.7° (Epoch: 30 May)

Event Time Altitude Azimuth Distance (km) Brightness Sun altitude
Rises 18:24:27 0° 153° (SSE) 3,217 5.8 -6.1°
Reaches altitude 10° 18:26:46 10° 149° (SSE) 2,294 5.0 -6.5°
Maximum altitude 18:31:42 56° 72° (ENE) 902 3.1 -7.4°
Drops below altitude 10° 18:36:40 10° 355° (N) 2,304 5.8 -8.3°
Sets 18:39:00 0° 351° (N) 3,234 6.6 -8.7°
